BLY1121 EGPH-EGGP

Flight info

Callsign BLY1121
Flight time 0h 53m
Altitude 25000
Route GOSAM P600 FENIK L612 BEBNI/N0419F230 L612 LAKEY
Aircraft RJ1H/M-SDFGIRWY/LB1

Departure

Time 2026-04-24 21:04
Airport Edinburgh Airport (EGPH)

Arrival

Time 2026-04-24 21:58
Airport Liverpool John Lennon Airport (EGGP)
Time Latitude Longitude Altitude Speed Heading
2026-04-24 20:42 55.94894 -3.35907 106 ft 0 kts 208°
2026-04-24 20:49 55.94909 -3.35892 105 ft 3 kts 211°
2026-04-24 20:49 55.94923 -3.35870 105 ft 3 kts 235°
2026-04-24 20:49 55.94928 -3.35839 107 ft 3 kts 287°
2026-04-24 20:49 55.94926 -3.35832 106 ft 0 kts 304°
2026-04-24 20:53 55.94929 -3.35837 108 ft 1 kts 322°
2026-04-24 20:54 55.94943 -3.35851 106 ft 3 kts 332°
2026-04-24 20:54 55.94969 -3.35862 108 ft 4 kts
2026-04-24 20:54 55.95002 -3.35843 106 ft 6 kts 23°
2026-04-24 20:54 55.95046 -3.35848 108 ft 6 kts 312°
2026-04-24 20:55 55.95070 -3.35916 108 ft 7 kts 299°
2026-04-24 20:55 55.95091 -3.35989 109 ft 7 kts 291°
2026-04-24 20:55 55.95108 -3.36082 108 ft 9 kts 288°
2026-04-24 20:55 55.95129 -3.36191 107 ft 10 kts 288°
2026-04-24 20:56 55.95127 -3.36293 108 ft 7 kts 247°
2026-04-24 20:56 55.95108 -3.36356 109 ft 4 kts 237°
2026-04-24 20:56 55.95095 -3.36393 111 ft 3 kts 239°
2026-04-24 20:56 55.95083 -3.36427 112 ft 4 kts 239°
2026-04-24 20:57 55.95061 -3.36494 112 ft 9 kts 239°
2026-04-24 20:57 55.95020 -3.36618 111 ft 14 kts 239°
2026-04-24 20:57 55.94964 -3.36781 110 ft 16 kts 238°
2026-04-24 20:57 55.94904 -3.36961 107 ft 18 kts 239°
2026-04-24 20:58 55.94840 -3.37146 108 ft 18 kts 239°
2026-04-24 20:58 55.94778 -3.37332 111 ft 16 kts 238°
2026-04-24 20:58 55.94723 -3.37495 114 ft 15 kts 239°
2026-04-24 20:58 55.94672 -3.37645 116 ft 13 kts 239°
2026-04-24 20:59 55.94625 -3.37782 116 ft 14 kts 239°
2026-04-24 20:59 55.94573 -3.37935 115 ft 15 kts 239°
2026-04-24 20:59 55.94517 -3.38098 113 ft 16 kts 239°
2026-04-24 20:59 55.94458 -3.38273 112 ft 16 kts 239°
2026-04-24 21:00 55.94403 -3.38439 117 ft 15 kts 239°
2026-04-24 21:00 55.94350 -3.38593 119 ft 13 kts 238°
2026-04-24 21:00 55.94304 -3.38729 120 ft 13 kts 239°
2026-04-24 21:00 55.94293 -3.38867 120 ft 11 kts 314°
2026-04-24 21:01 55.94326 -3.38907 106 ft 0 kts 331°
2026-04-24 21:01 55.94328 -3.38909 104 ft 1 kts 331°
2026-04-24 21:01 55.94334 -3.38915 100 ft 1 kts 331°
2026-04-24 21:01 55.94343 -3.38924 125 ft 2 kts 331°
2026-04-24 21:02 55.94354 -3.38934 120 ft 0 kts 331°
2026-04-24 21:02 55.94355 -3.38937 120 ft 1 kts 313°
2026-04-24 21:03 55.94360 -3.38948 121 ft 1 kts 301°
2026-04-24 21:03 55.94366 -3.38954 120 ft 1 kts 332°
2026-04-24 21:03 55.94383 -3.38967 120 ft 5 kts 345°
2026-04-24 21:03 55.94421 -3.38947 119 ft 7 kts 45°
2026-04-24 21:04 55.94502 -3.38720 118 ft 56 kts 59°
2026-04-24 21:04 55.94831 -3.37748 118 ft 124 kts 58°
2026-04-24 21:04 55.95358 -3.36253 399 ft 150 kts 57°
2026-04-24 21:04 55.95917 -3.34754 1214 ft 147 kts 54°
2026-04-24 21:05 55.96624 -3.33331 1803 ft 159 kts 44°
2026-04-24 21:05 55.97473 -3.31863 2263 ft 176 kts 42°
2026-04-24 21:05 55.98366 -3.30408 2986 ft 176 kts 40°
2026-04-24 21:05 55.99312 -3.29066 3698 ft 174 kts 23°
2026-04-24 21:06 56.00479 -3.29103 4314 ft 174 kts 332°
2026-04-24 21:06 56.01225 -3.30770 4818 ft 180 kts 284°
2026-04-24 21:06 56.01347 -3.33196 5043 ft 215 kts 273°
2026-04-24 21:06 56.01420 -3.36093 5220 ft 247 kts 274°
2026-04-24 21:07 56.01547 -3.39231 5344 ft 259 kts 276°
2026-04-24 21:07 56.01778 -3.42426 5475 ft 258 kts 280°
2026-04-24 21:07 56.01866 -3.45590 5655 ft 253 kts 257°
2026-04-24 21:07 56.01348 -3.48594 6113 ft 254 kts 253°
2026-04-24 21:08 56.00828 -3.51626 6552 ft 256 kts 255°
2026-04-24 21:08 56.00323 -3.54700 6893 ft 260 kts 255°
2026-04-24 21:08 55.99824 -3.57803 7187 ft 260 kts 255°
2026-04-24 21:08 55.99338 -3.60919 7482 ft 261 kts 256°
2026-04-24 21:09 55.98860 -3.64065 7778 ft 262 kts 256°
2026-04-24 21:09 55.98389 -3.67226 8079 ft 265 kts 257°
2026-04-24 21:09 55.97930 -3.70405 8383 ft 265 kts 257°
2026-04-24 21:09 55.97471 -3.73597 8687 ft 266 kts 257°
2026-04-24 21:10 55.97010 -3.76795 9012 ft 266 kts 257°
2026-04-24 21:10 55.96544 -3.80003 9350 ft 267 kts 257°
2026-04-24 21:10 55.96073 -3.83215 9689 ft 269 kts 257°
2026-04-24 21:10 55.95600 -3.86450 10039 ft 270 kts 258°
2026-04-24 21:11 55.95137 -3.89706 10357 ft 271 kts 258°
2026-04-24 21:11 55.94674 -3.92972 10669 ft 272 kts 258°
2026-04-24 21:11 55.94158 -3.96233 10987 ft 276 kts 250°
2026-04-24 21:11 55.93005 -3.98984 11326 ft 283 kts 223°
2026-04-24 21:12 55.91457 -4.01196 11663 ft 286 kts 220°
2026-04-24 21:12 55.90418 -4.02650 11890 ft 287 kts 220°
2026-04-24 21:12 55.88325 -4.05587 12331 ft 290 kts 221°
2026-04-24 21:12 55.86748 -4.07841 12668 ft 291 kts 221°
2026-04-24 21:13 55.85178 -4.10149 13002 ft 293 kts 223°
2026-04-24 21:13 55.83616 -4.12499 13340 ft 295 kts 223°
2026-04-24 21:13 55.82061 -4.14897 13687 ft 297 kts 224°
2026-04-24 21:13 55.80502 -4.17319 14036 ft 299 kts 224°
2026-04-24 21:14 55.79083 -4.19532 14383 ft 309 kts 223°
2026-04-24 21:14 55.77366 -4.21983 14649 ft 325 kts 219°
2026-04-24 21:14 55.75457 -4.24387 14731 ft 340 kts 217°
2026-04-24 21:14 55.73510 -4.26760 15299 ft 341 kts 212°
2026-04-24 21:15 55.71263 -4.28115 15773 ft 347 kts 185°
2026-04-24 21:15 55.68871 -4.27572 16234 ft 351 kts 160°
2026-04-24 21:15 55.66727 -4.25497 16687 ft 352 kts 145°
2026-04-24 21:15 55.64854 -4.22672 17095 ft 354 kts 140°
2026-04-24 21:16 55.62814 -4.20240 17525 ft 355 kts 151°
2026-04-24 21:16 55.60666 -4.18186 17975 ft 356 kts 153°
2026-04-24 21:16 55.58479 -4.16124 18422 ft 357 kts 153°
2026-04-24 21:16 55.56279 -4.14060 18802 ft 359 kts 153°
2026-04-24 21:17 55.54079 -4.11966 19156 ft 360 kts 152°
2026-04-24 21:17 55.51868 -4.09855 19495 ft 362 kts 152°
2026-04-24 21:17 55.49649 -4.07721 19854 ft 364 kts 152°
2026-04-24 21:17 55.48153 -4.06256 20081 ft 365 kts 152°
2026-04-24 21:18 55.45206 -4.03353 20518 ft 367 kts 152°
2026-04-24 21:18 55.42957 -4.01180 20843 ft 369 kts 152°
2026-04-24 21:18 55.40698 -3.99010 21169 ft 371 kts 152°
2026-04-24 21:18 55.38435 -3.96803 21484 ft 373 kts 152°
2026-04-24 21:19 55.36162 -3.94585 21796 ft 375 kts 151°
2026-04-24 21:19 55.33871 -3.92372 22109 ft 376 kts 152°
2026-04-24 21:19 55.31566 -3.90181 22406 ft 378 kts 152°
2026-04-24 21:19 55.29259 -3.87953 22710 ft 379 kts 152°
2026-04-24 21:20 55.24613 -3.83458 23298 ft 383 kts 152°
2026-04-24 21:20 55.22278 -3.81215 23559 ft 385 kts 152°
2026-04-24 21:20 55.19918 -3.78983 23828 ft 386 kts 152°
2026-04-24 21:21 55.17553 -3.76721 24061 ft 387 kts 152°
2026-04-24 21:21 55.15186 -3.74452 24282 ft 389 kts 152°
2026-04-24 21:21 55.12815 -3.72176 24503 ft 390 kts 152°
2026-04-24 21:21 55.10421 -3.69915 24715 ft 392 kts 152°
2026-04-24 21:22 55.08018 -3.67653 24998 ft 391 kts 152°
2026-04-24 21:22 55.05628 -3.65370 25157 ft 393 kts 152°
2026-04-24 21:22 55.03214 -3.63090 25226 ft 395 kts 152°
2026-04-24 21:22 55.01617 -3.61594 25239 ft 392 kts 152°
2026-04-24 21:23 54.99225 -3.59321 25246 ft 391 kts 152°
2026-04-24 21:23 54.96035 -3.56281 25248 ft 392 kts 152°
2026-04-24 21:23 54.94444 -3.54794 25244 ft 391 kts 152°
2026-04-24 21:23 54.92047 -3.52550 25246 ft 391 kts 152°
2026-04-24 21:24 54.89660 -3.50292 25245 ft 390 kts 152°
2026-04-24 21:24 54.87273 -3.48030 25247 ft 391 kts 152°
2026-04-24 21:24 54.84880 -3.45801 25250 ft 391 kts 152°
2026-04-24 21:24 54.82484 -3.43577 25251 ft 391 kts 152°
2026-04-24 21:25 54.80092 -3.41328 25250 ft 391 kts 152°
2026-04-24 21:25 54.77701 -3.39076 25251 ft 390 kts 152°
2026-04-24 21:25 54.75303 -3.36841 25140 ft 392 kts 152°
2026-04-24 21:25 54.72888 -3.34627 24933 ft 391 kts 153°
2026-04-24 21:26 54.70483 -3.32600 24712 ft 379 kts 155°
2026-04-24 21:26 54.68105 -3.30762 24495 ft 372 kts 156°
2026-04-24 21:26 54.65725 -3.29014 24281 ft 372 kts 157°
2026-04-24 21:26 54.63346 -3.27270 24064 ft 371 kts 157°
2026-04-24 21:27 54.60973 -3.25530 23828 ft 370 kts 157°
2026-04-24 21:27 54.58606 -3.23799 23562 ft 368 kts 156°
2026-04-24 21:27 54.56265 -3.22047 23298 ft 366 kts 156°
2026-04-24 21:27 54.53935 -3.20285 23023 ft 366 kts 156°
2026-04-24 21:28 54.51605 -3.18542 22754 ft 364 kts 156°
2026-04-24 21:28 54.49283 -3.16835 22493 ft 363 kts 156°
2026-04-24 21:28 54.46998 -3.15141 22231 ft 361 kts 156°
2026-04-24 21:28 54.44671 -3.13391 21971 ft 360 kts 156°
2026-04-24 21:29 54.42367 -3.11696 21716 ft 359 kts 157°
2026-04-24 21:29 54.40108 -3.10041 21456 ft 357 kts 156°
2026-04-24 21:29 54.37831 -3.08356 21201 ft 356 kts 156°
2026-04-24 21:29 54.35562 -3.06658 20940 ft 355 kts 156°
2026-04-24 21:30 54.33302 -3.04993 20698 ft 354 kts 156°
2026-04-24 21:30 54.31043 -3.03335 20384 ft 353 kts 157°
2026-04-24 21:30 54.28784 -3.01678 20005 ft 350 kts 157°
2026-04-24 21:30 54.26557 -3.00039 19644 ft 349 kts 157°
2026-04-24 21:31 54.24335 -2.98397 19283 ft 347 kts 157°
2026-04-24 21:31 54.22126 -2.96756 18923 ft 345 kts 157°
2026-04-24 21:31 54.19935 -2.95124 18571 ft 342 kts 157°
2026-04-24 21:31 54.17750 -2.93523 18163 ft 341 kts 158°
2026-04-24 21:32 54.15574 -2.91946 17770 ft 339 kts 157°
2026-04-24 21:32 54.13411 -2.90358 17372 ft 338 kts 157°
2026-04-24 21:32 54.11258 -2.88771 16982 ft 336 kts 157°
2026-04-24 21:32 54.09116 -2.87195 16596 ft 334 kts 157°
2026-04-24 21:33 54.06988 -2.85633 16220 ft 333 kts 157°
2026-04-24 21:33 54.04863 -2.84080 15837 ft 331 kts 157°
2026-04-24 21:33 54.02749 -2.82543 15467 ft 330 kts 157°
2026-04-24 21:33 54.00642 -2.81009 15104 ft 329 kts 157°
2026-04-24 21:34 53.98542 -2.79499 14734 ft 327 kts 157°
2026-04-24 21:34 53.96454 -2.77989 14378 ft 326 kts 157°
2026-04-24 21:34 53.94371 -2.76481 14021 ft 324 kts 157°
2026-04-24 21:34 53.92303 -2.74984 13624 ft 322 kts 157°
2026-04-24 21:35 53.90242 -2.73492 13233 ft 320 kts 157°
2026-04-24 21:35 53.88227 -2.72038 12840 ft 307 kts 157°
2026-04-24 21:35 53.86293 -2.70647 12443 ft 301 kts 157°
2026-04-24 21:35 53.84365 -2.69269 12051 ft 300 kts 157°
2026-04-24 21:36 53.82444 -2.67898 11672 ft 299 kts 157°
2026-04-24 21:36 53.80535 -2.66544 11295 ft 297 kts 157°
2026-04-24 21:36 53.78639 -2.65203 10927 ft 295 kts 157°
2026-04-24 21:36 53.76749 -2.63873 10564 ft 293 kts 157°
2026-04-24 21:37 53.74877 -2.62530 10208 ft 291 kts 156°
2026-04-24 21:37 53.73023 -2.61182 9815 ft 289 kts 156°
2026-04-24 21:37 53.71178 -2.59859 9425 ft 287 kts 157°
2026-04-24 21:37 53.69341 -2.58562 9043 ft 285 kts 157°
2026-04-24 21:38 53.67519 -2.57281 8641 ft 283 kts 157°
2026-04-24 21:38 53.65715 -2.55989 8276 ft 281 kts 156°
2026-04-24 21:38 53.63847 -2.55163 7904 ft 278 kts 181°
2026-04-24 21:38 53.62052 -2.56029 7556 ft 274 kts 214°
2026-04-24 21:39 53.60742 -2.58264 7353 ft 264 kts 234°
2026-04-24 21:39 53.59698 -2.60764 7261 ft 258 kts 236°
2026-04-24 21:39 53.58717 -2.63279 7229 ft 257 kts 238°
2026-04-24 21:39 53.57769 -2.65818 7226 ft 256 kts 238°
2026-04-24 21:40 53.56828 -2.68376 7219 ft 257 kts 238°
2026-04-24 21:40 53.55883 -2.70922 7224 ft 257 kts 238°
2026-04-24 21:40 53.54931 -2.73458 7227 ft 257 kts 238°
2026-04-24 21:40 53.53972 -2.75972 7217 ft 250 kts 237°
2026-04-24 21:41 53.53054 -2.78361 7206 ft 237 kts 237°
2026-04-24 21:41 53.52167 -2.80617 7197 ft 228 kts 236°
2026-04-24 21:41 53.51292 -2.82822 7199 ft 226 kts 236°
2026-04-24 21:41 53.50416 -2.85019 7206 ft 226 kts 236°
2026-04-24 21:42 53.49549 -2.87202 7255 ft 222 kts 237°
2026-04-24 21:42 53.48713 -2.89338 7310 ft 217 kts 237°
2026-04-24 21:42 53.47871 -2.91479 7219 ft 222 kts 236°
2026-04-24 21:42 53.47017 -2.93626 7105 ft 220 kts 236°
2026-04-24 21:43 53.46168 -2.95754 7043 ft 219 kts 236°
2026-04-24 21:43 53.45322 -2.97876 7005 ft 219 kts 236°
2026-04-24 21:43 53.44484 -2.99975 6989 ft 219 kts 236°
2026-04-24 21:43 53.43637 -3.02105 6974 ft 220 kts 236°
2026-04-24 21:44 53.42789 -3.04239 6970 ft 220 kts 236°
2026-04-24 21:44 53.41941 -3.06378 6966 ft 220 kts 236°
2026-04-24 21:44 53.41091 -3.08521 6968 ft 220 kts 236°
2026-04-24 21:44 53.40242 -3.10659 6960 ft 220 kts 236°
2026-04-24 21:45 53.39414 -3.12819 6949 ft 218 kts 243°
2026-04-24 21:45 53.39161 -3.15221 6946 ft 210 kts 270°
2026-04-24 21:45 53.39211 -3.17683 6952 ft 212 kts 274°
2026-04-24 21:45 53.39318 -3.20141 6955 ft 211 kts 275°
2026-04-24 21:46 53.39450 -3.22601 6953 ft 212 kts 275°
2026-04-24 21:46 53.39594 -3.25069 6953 ft 212 kts 276°
2026-04-24 21:46 53.39737 -3.27533 6948 ft 213 kts 275°
2026-04-24 21:46 53.39873 -3.30004 6958 ft 213 kts 275°
2026-04-24 21:47 53.40007 -3.32479 6953 ft 213 kts 275°
2026-04-24 21:47 53.40093 -3.34116 6948 ft 213 kts 275°
2026-04-24 21:47 53.40250 -3.37432 6946 ft 214 kts 274°
2026-04-24 21:47 53.40360 -3.39916 6955 ft 214 kts 274°
2026-04-24 21:48 53.40496 -3.42396 6937 ft 214 kts 281°
2026-04-24 21:48 53.41255 -3.44477 6930 ft 213 kts 323°
2026-04-24 21:48 53.42607 -3.45233 6939 ft 211 kts
2026-04-24 21:48 53.43966 -3.44358 6819 ft 210 kts 43°
2026-04-24 21:49 53.44626 -3.42355 6704 ft 195 kts 82°
2026-04-24 21:49 53.44724 -3.40086 6471 ft 196 kts 88°
2026-04-24 21:49 53.44758 -3.37804 6224 ft 195 kts 90°
2026-04-24 21:49 53.44764 -3.35527 5977 ft 194 kts 91°
2026-04-24 21:50 53.44671 -3.33334 5739 ft 186 kts 109°
2026-04-24 21:50 53.43960 -3.31562 5509 ft 185 kts 130°
2026-04-24 21:50 53.43117 -3.29929 5274 ft 185 kts 132°
2026-04-24 21:50 53.42252 -3.28377 5026 ft 180 kts 134°
2026-04-24 21:51 53.41371 -3.26902 4763 ft 178 kts 137°
2026-04-24 21:51 53.40463 -3.25487 4504 ft 178 kts 138°
2026-04-24 21:51 53.39547 -3.24101 4250 ft 177 kts 139°
2026-04-24 21:51 53.38630 -3.22731 4000 ft 176 kts 139°
2026-04-24 21:52 53.37689 -3.21420 3756 ft 175 kts 142°
2026-04-24 21:52 53.36712 -3.20199 3510 ft 174 kts 144°
2026-04-24 21:52 53.35732 -3.19015 3257 ft 172 kts 144°
2026-04-24 21:52 53.34784 -3.17876 2981 ft 165 kts 145°
2026-04-24 21:53 53.33858 -3.16760 2689 ft 162 kts 145°
2026-04-24 21:53 53.32994 -3.15711 2519 ft 146 kts 145°
2026-04-24 21:53 53.32206 -3.14693 2454 ft 143 kts 137°
2026-04-24 21:53 53.31839 -3.13181 2440 ft 147 kts 89°
2026-04-24 21:54 53.31955 -3.11458 2465 ft 149 kts 85°
2026-04-24 21:54 53.32094 -3.09832 2458 ft 138 kts 84°
2026-04-24 21:54 53.32235 -3.08224 2462 ft 140 kts 85°
2026-04-24 21:54 53.32355 -3.06609 2456 ft 139 kts 86°
2026-04-24 21:55 53.32452 -3.04964 2290 ft 144 kts 88°
2026-04-24 21:55 53.32534 -3.03307 2095 ft 143 kts 89°
2026-04-24 21:55 53.32604 -3.01657 1894 ft 141 kts 89°
2026-04-24 21:55 53.32673 -3.00072 1705 ft 135 kts 89°
2026-04-24 21:56 53.32738 -2.98517 1512 ft 133 kts 89°
2026-04-24 21:56 53.32807 -2.96974 1344 ft 133 kts 89°
2026-04-24 21:56 53.32878 -2.95433 1164 ft 133 kts 89°
2026-04-24 21:56 53.32949 -2.93891 982 ft 132 kts 88°
2026-04-24 21:57 53.33014 -2.92362 790 ft 131 kts 87°
2026-04-24 21:57 53.33084 -2.90841 611 ft 131 kts 86°
2026-04-24 21:57 53.33153 -2.89347 432 ft 130 kts 85°
2026-04-24 21:57 53.33226 -2.87838 261 ft 130 kts 85°
2026-04-24 21:58 53.33298 -2.86374 93 ft 119 kts 84°
2026-04-24 21:58 53.33353 -2.85254 89 ft 63 kts 87°
2026-04-24 21:58 53.33381 -2.84677 88 ft 24 kts 76°
2026-04-24 21:58 53.33433 -2.84492 86 ft 15 kts 58°
2026-04-24 21:59 53.33467 -2.84396 86 ft 8 kts 60°
2026-04-24 21:59 53.33496 -2.84313 88 ft 9 kts 60°
2026-04-24 21:59 53.33539 -2.84252 85 ft 9 kts 347°
2026-04-24 21:59 53.33558 -2.84346 88 ft 10 kts 269°
2026-04-24 22:00 53.33554 -2.84464 89 ft 11 kts 266°
2026-04-24 22:00 53.33547 -2.84592 85 ft 11 kts 264°
2026-04-24 22:00 53.33541 -2.84729 85 ft 12 kts 265°
2026-04-24 22:00 53.33534 -2.84876 86 ft 13 kts 266°
2026-04-24 22:01 53.33528 -2.85033 85 ft 14 kts 265°
2026-04-24 22:01 53.33520 -2.85198 86 ft 15 kts 266°
2026-04-24 22:01 53.33511 -2.85370 86 ft 15 kts 264°
2026-04-24 22:01 53.33529 -2.85501 88 ft 10 kts 343°
2026-04-24 22:02 53.33600 -2.85529 85 ft 11 kts 316°
2026-04-24 22:02 53.33617 -2.85642 87 ft 11 kts 328°
2026-04-24 22:02 53.33653 -2.85653 85 ft 0 kts 356°